{"data":{"norad_id":67380,"epoch":"2026-05-25T04:00:03.998880Z","epoch_age_seconds":61483,"freshness":"FRESH","line1":"1 67380U 26004T   26145.16671295 -.00052693  00000+0 -60730-2 0  9995","line2":"2 67380  97.7998 144.1274 0000333 343.1640 331.8589 14.85998828  5709","mean_motion":14.85998828,"eccentricity":3.33e-5,"inclination_deg":97.7998,"raan_deg":144.1274,"arg_perigee_deg":343.164,"mean_anomaly_deg":331.8589,"bstar":-0.006073,"rev_number":570,"period_min":96.904517881625,"perigee_km":610.21975882936,"apogee_km":610.68519888865,"semimajor_km":6988.589478859,"source":"CELESTRAK","updated_at":"2026-05-25T13:38:06.931397Z"}}